Jefferson, GA

4:21 PM EDT on August 21, 2017 (GMT -0400)
Jefferson

Weather History for K19A - January, 2013

Change the Weather History Date:

Saturday, January 26, 2013

  Actual Average (KWDR) Record (KWDR)
Temperature  
Mean Temperature 44 °F -  
Max Temperature 55 °F 53 °F 73 °F (1967)
Min Temperature 33 °F 32 °F 13 °F (1985)
Degree Days  
Heating Degree Days 21    
Moisture  
Dew Point 26 °F    
Average Humidity 60    
Maximum Humidity 93    
Minimum Humidity 13    
Precipitation  
Precipitation 0.00 in - - ()
Sea Level Pressure  
Sea Level Pressure 30.18 in    
Wind  
Wind Speed 6 mph (West)    
Max Wind Speed 9 mph    
Max Gust Speed -    
Visibility 8 miles    
Events Fog    
Averages and records for this station are not official NWS values.
T = Trace of Precipitation, MM = Missing Value Source: NWS Daily Summary

Daily Weather History Graph

Daily Weather History Graph

Search for Another Location

Airport or City:

Trip Planner

Search our weather history database for the weather conditions in past years. The results will help you decide how hot, cold, wet, or windy it might be!

Date:

Astronomy

Jan. 26, 2013 Rise Set
Actual Time 7:35 AM EST 5:58 PM EST
Civil Twilight 7:08 AM EST 6:25 PM EST
Nautical Twilight 6:38 AM EST 6:55 PM EST
Astronomical Twilight 6:08 AM EST 7:25 PM EST
Moon 5:50 PM EST (1/26) 6:53 AM EST (1/26)
Length of Visible Light 11h 16m
Length of Day
10h 23m
Full, 100% of the Moon is Illuminated
Jan 26
Full
Jan 26
Full
Feb 3
Last Quarter
Feb 10
New
Feb 17
First Quarter

Hourly Weather History & Observations

Time (EST) Temp. Windchill Dew Point Humidity Pressure Visibility Wind Dir Wind Speed Gust Speed Precip Events Conditions
12:15 AM 33.8 °F 28.6 °F 32.0 °F 93% 30.13 in 7.0 mi SW 5.8 mph - N/A   Overcast
12:35 AM 33.8 °F 27.7 °F 32.0 °F 93% 30.12 in 7.0 mi WSW 6.9 mph - N/A   Overcast
1:15 AM 33.8 °F 27.7 °F 32.0 °F 93% 30.11 in 10.0 mi WSW 6.9 mph - N/A   Mostly Cloudy
1:35 AM 33.8 °F 28.6 °F 32.0 °F 93% 30.11 in 7.0 mi WSW 5.8 mph - N/A   Mostly Cloudy
1:55 AM 33.8 °F 29.6 °F 32.0 °F 93% 30.11 in 7.0 mi West 4.6 mph - N/A   Scattered Clouds
2:15 AM 33.8 °F 27.7 °F 32.0 °F 93% 30.11 in 7.0 mi WSW 6.9 mph - N/A   Clear
2:35 AM 33.8 °F 27.7 °F 32.0 °F 93% 30.11 in 7.0 mi West 6.9 mph - N/A   Mostly Cloudy
2:55 AM 33.8 °F 30.8 °F 32.0 °F 93% 30.11 in 5.0 mi West 3.5 mph - N/A   Mostly Cloudy
3:15 AM 35.6 °F 31.7 °F 33.8 °F 93% 30.11 in 5.0 mi WSW 4.6 mph - N/A   Overcast
3:35 AM 35.6 °F 32.8 °F 33.8 °F 93% 30.11 in 5.0 mi West 3.5 mph - N/A   Overcast
3:55 AM 35.6 °F 31.7 °F 33.8 °F 93% 30.11 in 2.5 mi West 4.6 mph - N/A   Overcast
4:15 AM 37.4 °F 32.8 °F 35.6 °F 93% 30.11 in 0.5 mi West 5.8 mph - N/A Fog Fog
4:35 AM 37.4 °F 32.1 °F 35.6 °F 93% 30.11 in 0.5 mi West 6.9 mph - N/A Fog Fog
4:55 AM 37.4 °F 32.8 °F 35.6 °F 93% 30.12 in 0.2 mi West 5.8 mph - N/A Fog Fog
5:15 AM 37.4 °F 31.4 °F 35.6 °F 93% 30.12 in 0.5 mi West 8.1 mph - N/A Fog Fog
5:35 AM 37.4 °F 32.8 °F 35.6 °F 93% 30.12 in 0.8 mi WNW 5.8 mph - N/A   Overcast
5:55 AM 37.4 °F 32.8 °F 35.6 °F 93% 30.13 in 3.0 mi WNW 5.8 mph - N/A   Mostly Cloudy
6:15 AM 37.4 °F 32.8 °F 35.6 °F 93% 30.13 in 4.0 mi West 5.8 mph - N/A   Scattered Clouds
6:35 AM 37.4 °F 32.8 °F 35.6 °F 93% 30.13 in 4.0 mi West 5.8 mph - N/A   Clear
6:55 AM 37.4 °F 32.1 °F 35.6 °F 93% 30.15 in 4.0 mi West 6.9 mph - N/A   Clear
7:15 AM 37.4 °F 32.1 °F 35.6 °F 93% 30.15 in 5.0 mi West 6.9 mph - N/A   Clear
7:35 AM 37.4 °F 32.1 °F 35.6 °F 93% 30.16 in 5.0 mi WNW 6.9 mph - N/A   Clear
7:55 AM 37.4 °F 32.1 °F 35.6 °F 93% 30.16 in 5.0 mi West 6.9 mph - N/A   Clear
8:15 AM 37.4 °F 31.4 °F 35.6 °F 93% 30.16 in 5.0 mi West 8.1 mph - N/A   Clear
8:35 AM 37.4 °F 31.4 °F 35.6 °F 93% 30.17 in 5.0 mi West 8.1 mph - N/A   Clear
8:55 AM 37.4 °F 31.4 °F 35.6 °F 93% 30.18 in 7.0 mi West 8.1 mph - N/A   Clear
9:15 AM 39.2 °F 34.2 °F 35.6 °F 87% 30.18 in 7.0 mi West 6.9 mph - N/A   Clear
9:35 AM 41.0 °F 37.1 °F 35.6 °F 81% 30.19 in 10.0 mi West 5.8 mph - N/A   Clear
9:55 AM 41.0 °F 36.4 °F 33.8 °F 76% 30.21 in 10.0 mi West 6.9 mph - N/A   Clear
10:15 AM 42.8 °F 38.6 °F 32.0 °F 66% 30.21 in 10.0 mi WNW 6.9 mph - N/A   Clear
10:35 AM 42.8 °F 39.3 °F 30.2 °F 61% 30.21 in 10.0 mi West 5.8 mph - N/A   Clear
10:55 AM 42.8 °F 40.1 °F 30.2 °F 61% 30.22 in 10.0 mi West 4.6 mph - N/A   Clear
11:15 AM 44.6 °F 41.4 °F 30.2 °F 57% 30.22 in 10.0 mi WNW 5.8 mph - N/A   Clear
11:35 AM 44.6 °F 42.2 °F 30.2 °F 57% 30.22 in 10.0 mi WSW 4.6 mph - N/A   Clear
11:55 AM 46.4 °F - 28.4 °F 50% 30.22 in 10.0 mi Calm Calm - N/A   Clear
12:15 PM 48.2 °F - 26.6 °F 43% 30.22 in 10.0 mi WSW 6.9 mph - N/A   Clear
12:35 PM 50.0 °F - 24.8 °F 37% 30.22 in 10.0 mi WSW 6.9 mph - N/A   Clear
12:55 PM 50.0 °F - 23.0 °F 35% 30.21 in 10.0 mi WSW 4.6 mph - N/A   Clear
1:15 PM 51.8 °F - 21.2 °F 30% 30.21 in 10.0 mi SW 4.6 mph - N/A   Clear
1:35 PM 51.8 °F - 21.2 °F 30% 30.20 in 10.0 mi WSW 6.9 mph - N/A   Clear
1:55 PM 51.8 °F - 21.2 °F 30% 30.19 in 10.0 mi WSW 4.6 mph - N/A   Clear
2:15 PM 51.8 °F - 19.4 °F 28% 30.19 in 10.0 mi WSW 6.9 mph - N/A   Clear
2:35 PM 51.8 °F - 19.4 °F 28% 30.18 in 10.0 mi West 5.8 mph - N/A   Clear
2:55 PM 53.6 °F - 14.0 °F 21% 30.18 in 10.0 mi West 5.8 mph - N/A   Clear
3:15 PM 55.4 °F - 10.4 °F 17% 30.19 in 10.0 mi West 5.8 mph - N/A   Clear
3:35 PM 53.6 °F - 10.4 °F 18% 30.19 in 10.0 mi West 8.1 mph - N/A   Clear
3:55 PM 55.4 °F - 10.4 °F 17% 30.19 in 10.0 mi West 5.8 mph - N/A   Clear
4:15 PM 55.4 °F - 8.6 °F 15% 30.19 in 10.0 mi WSW 9.2 mph - N/A   Clear
4:55 PM 55.4 °F - 5.0 °F 13% 30.19 in 10.0 mi WNW 6.9 mph - N/A   Clear
5:15 PM 53.6 °F - 10.4 °F 18% 30.19 in 10.0 mi WNW 6.9 mph - N/A   Clear
5:35 PM 53.6 °F - 10.4 °F 18% 30.20 in 10.0 mi West 5.8 mph - N/A   Clear
5:55 PM 51.8 °F - 8.6 °F 18% 30.20 in 10.0 mi West 6.9 mph - N/A   Clear
6:15 PM 50.0 °F - 12.2 °F 22% 30.21 in 10.0 mi WNW 8.1 mph - N/A   Clear
6:35 PM 48.2 °F - 14.0 °F 25% 30.21 in 10.0 mi West 3.5 mph - N/A   Clear
6:55 PM 48.2 °F - 17.6 °F 30% 30.22 in 10.0 mi West 5.8 mph - N/A   Clear
7:15 PM 46.4 °F 43.5 °F 19.4 °F 34% 30.22 in 10.0 mi WNW 5.8 mph - N/A   Clear
7:35 PM 44.6 °F 41.4 °F 21.2 °F 39% 30.23 in 10.0 mi West 5.8 mph - N/A   Clear
7:55 PM 44.6 °F 40.7 °F 21.2 °F 39% 30.23 in 10.0 mi West 6.9 mph - N/A   Clear
8:15 PM 44.6 °F 40.7 °F 23.0 °F 43% 30.23 in 10.0 mi WNW 6.9 mph - N/A   Clear
8:35 PM 44.6 °F 41.4 °F 23.0 °F 43% 30.23 in 10.0 mi WNW 5.8 mph - N/A   Clear
8:55 PM 42.8 °F 39.3 °F 23.0 °F 46% 30.23 in 10.0 mi WNW 5.8 mph - N/A   Clear
9:15 PM 42.8 °F 39.3 °F 23.0 °F 46% 30.24 in 10.0 mi WNW 5.8 mph - N/A   Clear
9:35 PM 42.8 °F 40.1 °F 23.0 °F 46% 30.25 in 10.0 mi WNW 4.6 mph - N/A   Clear
9:55 PM 41.0 °F - 23.0 °F 49% 30.26 in 10.0 mi Calm Calm - N/A   Clear
10:15 PM 41.0 °F 39.0 °F 23.0 °F 49% 30.26 in 10.0 mi WNW 3.5 mph - N/A   Clear
10:35 PM 39.2 °F 37.0 °F 23.0 °F 52% 30.27 in 10.0 mi WNW 3.5 mph - N/A   Clear
10:55 PM 37.4 °F - 23.0 °F 56% 30.27 in 10.0 mi Calm Calm - N/A   Clear
11:15 PM 39.2 °F - 23.0 °F 52% 30.27 in 10.0 mi Calm Calm - N/A   Clear
11:35 PM 37.4 °F - 23.0 °F 56% 30.27 in 10.0 mi Calm Calm - N/A   Clear
11:55 PM 37.4 °F - 23.0 °F 56% 30.27 in 10.0 mi Calm Calm - N/A   Clear